Flag for Norway Weather past 2 weeks in Lillestrøm, Norway

Now
52 °F

Light rain. Overcast.


Feels Like: 52 °F
Forecast: 37 / 54 °F
Wind: 3 mph from North

Location: Oslo-Blindern

Current Time: Sep 21, 2014 at 8:48:20 AM

Latest Report: Sep 21, 2014 at 8:00 AM


Visibility: 47 mi

Pressure: 29.78 "Hg

Humidity: 90%

Dew point: 49 °F

Location of LillestrømLocation

Historic Weather in Lillestrøm — Graph

°F

Lillestrøm temperature yesterday

Maximum temperature yesterday: 61 °F (at 3:00 PM)
Minimum temperature yesterday: 45 °F (at 7:00 AM)
Average temperature yesterday: 52 °F

Past Weeks' High & Low Weather Summary

 TemperatureHumidityPressure
High70 °F (Sep 13, 3:00 PM)98% (Sep 9, 6:00 AM)30.48 "Hg (Sep 9, 6:00 AM)
Low44 °F (Sep 18, 6:00 AM)42% (Sep 14, 3:00 PM)29.76 "Hg (Sep 9, 6:00 AM)
Average57 °F79%30.16 "Hg
* Reported Sep 6 7:00 AM — Sep 21 7:00 AM, Lillestrøm, Weather by CustomWeather, © 2014

Note: Actual official high and low records may vary slightly from our data, if they occured in-between our weather recording intervals... More about our weather records

Advertising

Lillestrøm weather history for previous 24 hours

 ConditionsComfort  
Time TempWeatherWind HumidityBarometerVisibility
7:00 AM
Sep 21
53 °FCool.6 mph93%29.76 "HgN/A
6:00 AM53 °FCool.No wind97%29.77 "HgN/A
5:00 AM53 °FLight rain. Overcast.1 mph97%29.78 "Hg9 mi
4:00 AM54 °FCool.1 mph96%29.79 "HgN/A
3:00 AM54 °FCool.2 mph95%29.80 "HgN/A
2:00 AM54 °FLight rain. Overcast.1 mph94%29.81 "Hg9 mi
1:00 AM54 °FCool.1 mph90%29.82 "HgN/A
12:00 AM54 °FCool.2 mph89%29.82 "HgN/A
11:00 PM
Sep 20
54 °FOvercast.2 mph89%29.83 "Hg16 mi
10:00 PM55 °FCool.1 mph88%29.84 "HgN/A
9:00 PM56 °FCool.1 mph85%29.85 "HgN/A
8:00 PM57 °FOvercast.1 mph84%29.85 "Hg9 mi
7:00 PM58 °FCool.1 mph81%29.86 "HgN/A
3:00 PM61 °FCool.1 mph71%29.91 "HgN/A
2:00 PM57 °FLow clouds.1 mph81%29.94 "Hg11 mi
1:00 PM56 °FCool.1 mph85%29.95 "HgN/A
11:00 AM51 °FFog.1 mph92%29.97 "Hg4 mi
10:00 AM51 °FCool.1 mph93%29.98 "HgN/A
9:00 AM49 °FCool.1 mph93%29.99 "HgN/A
8:00 AM46 °FFog.1 mph96%29.99 "Hg9 mi
Weather by CustomWeather, © 2014

See weather overviewHow to use our weather pages